Location: Boston
(42.3580°N, 71.0600°W)
Time: 17:46:47
(UTC-04:00)

ISS - Pass Details

Date: 10 October 2017
Orbit: 401 x 408 km, 51.6° (Epoch: 21 October)

Event Time Altitude Azimuth Distance (km) Brightness Sun altitude
Rises 19:42:33 0° 306° (NW) 2,327 1.1 -17.9°
Reaches altitude 10° 19:44:42 10° 314° (NW) 1,466 -0.2 -18.3°
Enters shadow 19:47:48 44° 23° (NNE) 576 -3.3 -18.9°
